Year,Month,Day,Hour,Minute,Value (Times are PST for temperature in C)
2008,07,19,00,00,11.30
2008,07,19,00,01,11.30
2008,07,19,00,02,11.30
2008,07,19,00,03,11.30
2008,07,19,00,04,11.30
2008,07,19,00,05,11.30
2008,07,19,00,06,11.30
2008,07,19,00,07,11.30
2008,07,19,00,08,11.30
2008,07,19,00,09,11.30
2008,07,19,00,10,11.30
2008,07,19,00,11,11.30
2008,07,19,00,12,11.20
2008,07,19,00,13,11.20
2008,07,19,00,14,11.20
2008,07,19,00,15,11.20
2008,07,19,00,16,11.20
2008,07,19,00,17,11.20
2008,07,19,00,18,11.20
2008,07,19,00,19,11.20
2008,07,19,00,20,11.20
2008,07,19,00,21,11.10
2008,07,19,00,22,11.10
2008,07,19,00,23,11.10
2008,07,19,00,24,11.10
2008,07,19,00,25,11.10
2008,07,19,00,26,11.10
2008,07,19,00,27,11.10
2008,07,19,00,28,11.00
2008,07,19,00,29,10.90
2008,07,19,00,30,10.90
2008,07,19,00,31,10.90
2008,07,19,00,32,10.90
2008,07,19,00,33,10.90
2008,07,19,00,34,10.90
2008,07,19,00,35,10.80
2008,07,19,00,36,10.80
2008,07,19,00,37,10.80
2008,07,19,00,38,10.80
2008,07,19,00,39,10.70
2008,07,19,00,40,10.70
2008,07,19,00,41,10.70
2008,07,19,00,42,10.70
2008,07,19,00,43,10.60
2008,07,19,00,44,10.60
2008,07,19,00,45,10.60
2008,07,19,00,46,10.60
2008,07,19,00,47,10.60
2008,07,19,00,48,10.60
2008,07,19,00,49,10.60
2008,07,19,00,50,10.60
2008,07,19,00,51,10.60
2008,07,19,00,52,10.60
2008,07,19,00,53,10.60
2008,07,19,00,54,10.60
2008,07,19,00,55,10.60
2008,07,19,00,56,10.60
2008,07,19,00,57,10.60
2008,07,19,00,58,10.60
2008,07,19,00,59,10.60
2008,07,19,01,00,10.60
2008,07,19,01,01,10.60
2008,07,19,01,02,10.60
2008,07,19,01,03,10.60
2008,07,19,01,04,10.60
2008,07,19,01,05,10.60
2008,07,19,01,06,10.60
2008,07,19,01,07,10.60
2008,07,19,01,08,10.60
2008,07,19,01,09,10.60
2008,07,19,01,10,10.60
2008,07,19,01,11,10.60
2008,07,19,01,12,10.60
2008,07,19,01,13,10.60
2008,07,19,01,14,10.60
2008,07,19,01,15,10.60
2008,07,19,01,16,10.60
2008,07,19,01,17,10.60
2008,07,19,01,18,10.60
2008,07,19,01,19,10.60
2008,07,19,01,20,10.60
2008,07,19,01,21,10.60
2008,07,19,01,22,10.60
2008,07,19,01,23,10.60
2008,07,19,01,24,10.60
2008,07,19,01,25,10.60
2008,07,19,01,26,10.50
2008,07,19,01,27,10.40
2008,07,19,01,28,10.40
2008,07,19,01,29,10.40
2008,07,19,01,30,10.40
2008,07,19,01,31,10.40
2008,07,19,01,32,10.40
2008,07,19,01,33,10.40
2008,07,19,01,34,10.40
2008,07,19,01,35,10.40
2008,07,19,01,36,10.40
2008,07,19,01,37,10.40
2008,07,19,01,38,10.40
2008,07,19,01,39,10.40
2008,07,19,01,40,10.40
2008,07,19,01,41,10.30
2008,07,19,01,42,10.30
2008,07,19,01,43,10.30
2008,07,19,01,44,10.30
2008,07,19,01,45,10.20
2008,07,19,01,46,10.20
2008,07,19,01,47,10.20
2008,07,19,01,48,10.20
2008,07,19,01,49,10.10
2008,07,19,01,50,10.10
2008,07,19,01,51,10.10
2008,07,19,01,52,10.10
2008,07,19,01,53,10.10
2008,07,19,01,54,10.10
2008,07,19,01,55,10.10
2008,07,19,01,56,10.10
2008,07,19,01,57,10.10
2008,07,19,01,58,10.10
2008,07,19,01,59,10.10
2008,07,19,02,00,10.10
2008,07,19,02,01,10.10
2008,07,19,02,02,10.10
2008,07,19,02,03,10.10
2008,07,19,02,04,10.10
2008,07,19,02,05,10.10
2008,07,19,02,06,10.10
2008,07,19,02,07,10.10
2008,07,19,02,08,10.10
2008,07,19,02,09,10.00
2008,07,19,02,10,9.90
2008,07,19,02,11,9.90
2008,07,19,02,12,9.90
2008,07,19,02,13,9.90
2008,07,19,02,14,9.90
2008,07,19,02,15,10.00
2008,07,19,02,16,10.10
2008,07,19,02,17,10.10
2008,07,19,02,18,10.10
2008,07,19,02,19,10.10
2008,07,19,02,20,10.10
2008,07,19,02,21,10.10
2008,07,19,02,22,10.10
2008,07,19,02,23,10.10
2008,07,19,02,24,10.10
2008,07,19,02,25,10.10
2008,07,19,02,26,10.10
2008,07,19,02,27,10.10
2008,07,19,02,28,10.10
2008,07,19,02,29,9.90
2008,07,19,02,30,9.90
2008,07,19,02,31,9.90
2008,07,19,02,32,9.90
2008,07,19,02,33,9.90
2008,07,19,02,34,9.90
2008,07,19,02,35,9.90
2008,07,19,02,36,9.90
2008,07,19,02,37,9.90
2008,07,19,02,38,9.90
2008,07,19,02,39,9.90
2008,07,19,02,40,9.90
2008,07,19,02,41,9.90
2008,07,19,02,42,9.90
2008,07,19,02,43,9.90
2008,07,19,02,44,9.90
2008,07,19,02,45,9.90
2008,07,19,02,46,9.80
2008,07,19,02,47,9.80
2008,07,19,02,48,9.80
2008,07,19,02,49,9.80
2008,07,19,02,50,9.70
2008,07,19,02,51,9.70
2008,07,19,02,52,9.70
2008,07,19,02,53,9.70
2008,07,19,02,54,9.70
2008,07,19,02,55,9.70
2008,07,19,02,56,9.70
2008,07,19,02,57,9.70
2008,07,19,02,58,9.60
2008,07,19,02,59,9.60
2008,07,19,03,00,9.60
2008,07,19,03,01,9.60
2008,07,19,03,02,9.50
2008,07,19,03,03,9.50
2008,07,19,03,04,9.50
2008,07,19,03,05,9.50
2008,07,19,03,06,9.40
2008,07,19,03,07,9.40
2008,07,19,03,08,9.40
2008,07,19,03,09,9.40
2008,07,19,03,10,9.30
2008,07,19,03,11,9.30
2008,07,19,03,12,9.30
2008,07,19,03,13,9.30
2008,07,19,03,14,9.30
2008,07,19,03,15,9.30
2008,07,19,03,16,9.30
2008,07,19,03,17,9.30
2008,07,19,03,18,9.30
2008,07,19,03,19,9.30
2008,07,19,03,20,9.30
2008,07,19,03,21,9.30
2008,07,19,03,22,9.30
2008,07,19,03,23,9.30
2008,07,19,03,24,9.40
2008,07,19,03,25,9.40
2008,07,19,03,26,9.40
2008,07,19,03,27,9.40
2008,07,19,03,28,9.40
2008,07,19,03,29,9.40
2008,07,19,03,30,9.40
2008,07,19,03,31,9.40
2008,07,19,03,32,9.40
2008,07,19,03,33,9.40
2008,07,19,03,34,9.40
2008,07,19,03,35,9.40
2008,07,19,03,36,9.40
2008,07,19,03,37,9.40
2008,07,19,03,38,9.40
2008,07,19,03,39,9.40
2008,07,19,03,40,9.40
2008,07,19,03,41,9.30
2008,07,19,03,42,9.30
2008,07,19,03,43,9.30
2008,07,19,03,44,9.30
2008,07,19,03,45,9.30
2008,07,19,03,46,9.30
2008,07,19,03,47,9.30
2008,07,19,03,48,9.30
2008,07,19,03,49,9.30
2008,07,19,03,50,9.30
2008,07,19,03,51,9.30
2008,07,19,03,52,9.30
2008,07,19,03,53,9.30
2008,07,19,03,54,9.30
2008,07,19,03,55,9.30
2008,07,19,03,56,9.30
2008,07,19,03,57,9.30
2008,07,19,03,58,9.30
2008,07,19,03,59,9.30
2008,07,19,04,00,9.30
2008,07,19,04,01,9.30
2008,07,19,04,02,9.30
2008,07,19,04,03,9.30
2008,07,19,04,04,9.30
2008,07,19,04,05,9.30
2008,07,19,04,06,9.30
2008,07,19,04,07,9.30
2008,07,19,04,08,9.30
2008,07,19,04,09,9.30
2008,07,19,04,10,9.30
2008,07,19,04,11,9.30
2008,07,19,04,12,9.30
2008,07,19,04,13,9.30
2008,07,19,04,14,9.30
2008,07,19,04,15,9.30
2008,07,19,04,16,9.20
2008,07,19,04,17,9.30
2008,07,19,04,18,9.30
2008,07,19,04,19,9.30
2008,07,19,04,20,9.30
2008,07,19,04,21,9.30
2008,07,19,04,22,9.30
2008,07,19,04,23,9.30
2008,07,19,04,24,9.30
2008,07,19,04,25,9.30
2008,07,19,04,26,9.30
2008,07,19,04,27,9.30
2008,07,19,04,28,9.30
2008,07,19,04,29,9.30
2008,07,19,04,30,9.30
2008,07,19,04,31,9.20
2008,07,19,04,32,9.20
2008,07,19,04,33,9.20
2008,07,19,04,34,9.20
2008,07,19,04,35,9.20
2008,07,19,04,36,9.20
2008,07,19,04,37,9.20
2008,07,19,04,38,9.20
2008,07,19,04,39,9.20
2008,07,19,04,40,9.20
2008,07,19,04,41,9.20
2008,07,19,04,42,9.20
2008,07,19,04,43,9.20
2008,07,19,04,44,9.20
2008,07,19,04,45,9.20
2008,07,19,04,46,9.20
2008,07,19,04,47,9.20
2008,07,19,04,48,9.20
2008,07,19,04,49,9.20
2008,07,19,04,50,9.20
2008,07,19,04,51,9.20
2008,07,19,04,52,9.20
2008,07,19,04,53,9.20
2008,07,19,04,54,9.20
2008,07,19,04,55,9.20
2008,07,19,04,56,9.10
2008,07,19,04,57,9.10
2008,07,19,04,58,9.10
2008,07,19,04,59,9.10
2008,07,19,05,00,9.10
2008,07,19,05,01,9.10
2008,07,19,05,02,9.10
2008,07,19,05,03,9.00
2008,07,19,05,04,9.00
2008,07,19,05,05,9.00
2008,07,19,05,06,9.00
2008,07,19,05,07,9.00
2008,07,19,05,08,9.00
2008,07,19,05,09,8.90
2008,07,19,05,10,8.90
2008,07,19,05,11,8.90
2008,07,19,05,12,8.90
2008,07,19,05,13,8.90
2008,07,19,05,14,8.90
2008,07,19,05,15,8.90
2008,07,19,05,16,8.80
2008,07,19,05,17,8.80
2008,07,19,05,18,8.80
2008,07,19,05,19,8.80
2008,07,19,05,20,8.80
2008,07,19,05,21,8.80
2008,07,19,05,22,8.80
2008,07,19,05,23,8.80
2008,07,19,05,24,8.80
2008,07,19,05,25,8.70
2008,07,19,05,26,8.70
2008,07,19,05,27,8.70
2008,07,19,05,28,8.70
2008,07,19,05,29,8.80
2008,07,19,05,30,8.80
2008,07,19,05,31,8.80
2008,07,19,05,32,8.80
2008,07,19,05,33,8.80
2008,07,19,05,34,8.80
2008,07,19,05,35,8.80
2008,07,19,05,36,8.80
2008,07,19,05,37,8.80
2008,07,19,05,38,8.80
2008,07,19,05,39,8.90
2008,07,19,05,40,8.90
2008,07,19,05,41,8.90
2008,07,19,05,42,8.90
2008,07,19,05,43,8.90
2008,07,19,05,44,8.90
2008,07,19,05,45,8.90
2008,07,19,05,46,8.90
2008,07,19,05,47,8.90
2008,07,19,05,48,8.90
2008,07,19,05,49,8.90
2008,07,19,05,50,8.90
2008,07,19,05,51,8.90
2008,07,19,05,52,8.90
2008,07,19,05,53,8.90
2008,07,19,05,54,8.90
2008,07,19,05,55,8.80
2008,07,19,05,56,8.80
2008,07,19,05,57,8.80
2008,07,19,05,58,8.80
2008,07,19,05,59,8.80
2008,07,19,06,00,8.80
2008,07,19,06,01,8.70
2008,07,19,06,02,8.70
2008,07,19,06,03,8.70
2008,07,19,06,04,8.70
2008,07,19,06,05,8.70
2008,07,19,06,06,8.70
2008,07,19,06,07,8.70
2008,07,19,06,08,8.70
2008,07,19,06,09,8.70
2008,07,19,06,10,8.70
2008,07,19,06,11,8.70
2008,07,19,06,12,8.70
2008,07,19,06,13,8.70
2008,07,19,06,14,8.70
2008,07,19,06,15,8.70
2008,07,19,06,16,8.70
2008,07,19,06,17,8.80
2008,07,19,06,18,8.80
2008,07,19,06,19,8.80
2008,07,19,06,20,8.90
2008,07,19,06,21,8.90
2008,07,19,06,22,8.90
2008,07,19,06,23,8.90
2008,07,19,06,24,8.90
2008,07,19,06,25,8.90
2008,07,19,06,26,9.00
2008,07,19,06,27,9.00
2008,07,19,06,28,9.00
2008,07,19,06,29,9.00
2008,07,19,06,30,9.10
2008,07,19,06,31,9.10
2008,07,19,06,32,9.10
2008,07,19,06,33,9.20
2008,07,19,06,34,9.20
2008,07,19,06,35,9.20
2008,07,19,06,36,9.20
2008,07,19,06,37,9.20
2008,07,19,06,38,9.20
2008,07,19,06,39,9.20
2008,07,19,06,40,9.30
2008,07,19,06,41,9.30
2008,07,19,06,42,9.30
2008,07,19,06,43,9.40
2008,07,19,06,44,9.40
2008,07,19,06,45,9.50
2008,07,19,06,46,9.50
2008,07,19,06,47,9.50
2008,07,19,06,48,9.60
2008,07,19,06,49,9.60
2008,07,19,06,50,9.70
2008,07,19,06,51,9.70
2008,07,19,06,52,9.70
2008,07,19,06,53,9.70
2008,07,19,06,54,9.80
2008,07,19,06,55,9.80
2008,07,19,06,56,9.80
2008,07,19,06,57,9.80
2008,07,19,06,58,9.90
2008,07,19,06,59,9.90
2008,07,19,07,00,9.90
2008,07,19,07,01,9.90
2008,07,19,07,02,10.00
2008,07,19,07,03,10.10
2008,07,19,07,04,10.10
2008,07,19,07,05,10.20
2008,07,19,07,06,10.30
2008,07,19,07,07,10.30
2008,07,19,07,08,10.40
2008,07,19,07,09,10.40
2008,07,19,07,10,10.60
2008,07,19,07,11,10.60
2008,07,19,07,12,10.70
2008,07,19,07,13,10.70
2008,07,19,07,14,10.80
2008,07,19,07,15,10.90
2008,07,19,07,16,10.90
2008,07,19,07,17,11.10
2008,07,19,07,18,11.10
2008,07,19,07,19,11.20
2008,07,19,07,20,11.20
2008,07,19,07,21,11.30
2008,07,19,07,22,11.30
2008,07,19,07,23,11.40
2008,07,19,07,24,11.40
2008,07,19,07,25,11.60
2008,07,19,07,26,11.60
2008,07,19,07,27,11.60
2008,07,19,07,28,11.70
2008,07,19,07,29,11.80
2008,07,19,07,30,11.80
2008,07,19,07,31,11.90
2008,07,19,07,32,12.00
2008,07,19,07,33,12.00
2008,07,19,07,34,12.10
2008,07,19,07,35,12.10
2008,07,19,07,36,12.20
2008,07,19,07,37,12.20
2008,07,19,07,38,12.30
2008,07,19,07,39,12.30
2008,07,19,07,40,12.30
2008,07,19,07,41,12.40
2008,07,19,07,42,12.50
2008,07,19,07,43,12.60
2008,07,19,07,44,12.60
2008,07,19,07,45,12.70
2008,07,19,07,46,12.80
2008,07,19,07,47,12.90
2008,07,19,07,48,13.00
2008,07,19,07,49,13.00
2008,07,19,07,50,13.10
2008,07,19,07,51,13.20
2008,07,19,07,52,13.30
2008,07,19,07,53,13.40
2008,07,19,07,54,13.50
2008,07,19,07,55,13.60
2008,07,19,07,56,13.70
2008,07,19,07,57,13.80
2008,07,19,07,58,13.90
2008,07,19,07,59,14.00
2008,07,19,08,00,14.10
2008,07,19,08,01,14.20
2008,07,19,08,02,14.30
2008,07,19,08,03,14.40
2008,07,19,08,04,14.40
2008,07,19,08,05,14.50
2008,07,19,08,06,14.50
2008,07,19,08,07,14.60
2008,07,19,08,08,14.70
2008,07,19,08,09,14.80
2008,07,19,08,10,14.80
2008,07,19,08,11,14.90
2008,07,19,08,12,15.00
2008,07,19,08,13,15.10
2008,07,19,08,14,15.20
2008,07,19,08,15,15.30
2008,07,19,08,16,15.30
2008,07,19,08,17,15.30
2008,07,19,08,18,15.30
2008,07,19,08,19,15.30
2008,07,19,08,20,15.30
2008,07,19,08,21,15.40
2008,07,19,08,22,15.40
2008,07,19,08,23,15.50
2008,07,19,08,24,15.60
2008,07,19,08,25,15.70
2008,07,19,08,26,15.80
2008,07,19,08,27,15.80
2008,07,19,08,28,15.90
2008,07,19,08,29,16.00
2008,07,19,08,30,16.00
2008,07,19,08,31,15.90
2008,07,19,08,32,15.80
2008,07,19,08,33,15.80
2008,07,19,08,34,15.60
2008,07,19,08,35,15.60
2008,07,19,08,36,15.50
2008,07,19,08,37,15.40
2008,07,19,08,38,15.30
2008,07,19,08,39,15.30
2008,07,19,08,40,15.30
2008,07,19,08,41,15.40
2008,07,19,08,42,15.50
2008,07,19,08,43,15.50
2008,07,19,08,44,15.60
2008,07,19,08,45,15.70
2008,07,19,08,46,15.80
2008,07,19,08,47,15.90
2008,07,19,08,48,16.00
2008,07,19,08,49,16.10
2008,07,19,08,50,16.20
2008,07,19,08,51,16.30
2008,07,19,08,52,16.30
2008,07,19,08,53,16.30
2008,07,19,08,54,16.20
2008,07,19,08,55,16.20
2008,07,19,08,56,16.20
2008,07,19,08,57,16.30
2008,07,19,08,58,16.40
2008,07,19,08,59,16.50
2008,07,19,09,00,16.60
2008,07,19,09,01,16.70
2008,07,19,09,02,16.80
2008,07,19,09,03,16.90
2008,07,19,09,04,17.00
2008,07,19,09,05,17.20
2008,07,19,09,06,17.30
2008,07,19,09,07,17.30
2008,07,19,09,08,17.20
2008,07,19,09,09,17.00
2008,07,19,09,10,16.80
2008,07,19,09,11,16.60
2008,07,19,09,12,16.40
2008,07,19,09,13,16.30
2008,07,19,09,14,16.20
2008,07,19,09,15,16.20
2008,07,19,09,16,16.20
2008,07,19,09,17,16.20
2008,07,19,09,18,16.20
2008,07,19,09,19,16.20
2008,07,19,09,20,16.30
2008,07,19,09,21,16.30
2008,07,19,09,22,16.30
2008,07,19,09,23,16.30
2008,07,19,09,24,16.40
2008,07,19,09,25,16.40
2008,07,19,09,26,16.40
2008,07,19,09,27,16.40
2008,07,19,09,28,16.40
2008,07,19,09,29,16.30
2008,07,19,09,30,16.30
2008,07,19,09,31,16.20
2008,07,19,09,32,16.20
2008,07,19,09,33,16.20
2008,07,19,09,34,16.30
2008,07,19,09,35,16.40
2008,07,19,09,36,16.40
2008,07,19,09,37,16.40
2008,07,19,09,38,16.40
2008,07,19,09,39,16.50
2008,07,19,09,40,16.60
2008,07,19,09,41,16.60
2008,07,19,09,42,16.60
2008,07,19,09,43,16.60
2008,07,19,09,44,16.70
2008,07,19,09,45,16.70
2008,07,19,09,46,16.70
2008,07,19,09,47,16.80
2008,07,19,09,48,16.90
2008,07,19,09,49,17.00
2008,07,19,09,50,17.00
2008,07,19,09,51,17.10
2008,07,19,09,52,17.20
2008,07,19,09,53,17.30
2008,07,19,09,54,17.30
2008,07,19,09,55,17.30
2008,07,19,09,56,17.30
2008,07,19,09,57,17.30
2008,07,19,09,58,17.30
2008,07,19,09,59,17.30
2008,07,19,10,00,17.30
2008,07,19,10,01,17.30
2008,07,19,10,02,17.40
2008,07,19,10,03,17.40
2008,07,19,10,04,17.50
2008,07,19,10,05,17.50
2008,07,19,10,06,17.50
2008,07,19,10,07,17.50
2008,07,19,10,08,17.50
2008,07,19,10,09,17.40
2008,07,19,10,10,17.30
2008,07,19,10,11,17.30
2008,07,19,10,12,17.20
2008,07,19,10,13,17.00
2008,07,19,10,14,17.00
2008,07,19,10,15,16.90
2008,07,19,10,16,16.90
2008,07,19,10,17,17.00
2008,07,19,10,18,17.00
2008,07,19,10,19,17.00
2008,07,19,10,20,17.10
2008,07,19,10,21,17.00
2008,07,19,10,22,17.00
2008,07,19,10,23,17.00
2008,07,19,10,24,16.90
2008,07,19,10,25,16.90
2008,07,19,10,26,16.80
2008,07,19,10,27,16.80
2008,07,19,10,28,16.80
2008,07,19,10,29,16.90
2008,07,19,10,30,17.10
2008,07,19,10,31,17.20
2008,07,19,10,32,17.30
2008,07,19,10,33,17.30
2008,07,19,10,34,17.30
2008,07,19,10,35,17.30
2008,07,19,10,36,17.30
2008,07,19,10,37,17.30
2008,07,19,10,38,17.30
2008,07,19,10,39,17.30
2008,07,19,10,40,17.20
2008,07,19,10,41,17.30
2008,07,19,10,42,17.30
2008,07,19,10,43,17.30
2008,07,19,10,44,17.30
2008,07,19,10,45,17.30
2008,07,19,10,46,17.30
2008,07,19,10,47,17.30
2008,07,19,10,48,17.30
2008,07,19,10,49,17.30
2008,07,19,10,50,17.30
2008,07,19,10,51,17.40
2008,07,19,10,52,17.40
2008,07,19,10,53,17.30
2008,07,19,10,54,17.30
2008,07,19,10,55,17.40
2008,07,19,10,56,17.50
2008,07,19,10,57,17.50
2008,07,19,10,58,17.60
2008,07,19,10,59,17.70
2008,07,19,11,00,17.80
2008,07,19,11,01,17.90
2008,07,19,11,02,17.90
2008,07,19,11,03,18.00
2008,07,19,11,04,18.10
2008,07,19,11,05,18.20
2008,07,19,11,06,18.10
2008,07,19,11,07,17.90
2008,07,19,11,08,17.70
2008,07,19,11,09,17.60
2008,07,19,11,10,17.70
2008,07,19,11,11,17.80
2008,07,19,11,12,17.80
2008,07,19,11,13,18.00
2008,07,19,11,14,18.10
2008,07,19,11,15,18.10
2008,07,19,11,16,18.10
2008,07,19,11,17,17.90
2008,07,19,11,18,17.90
2008,07,19,11,19,17.70
2008,07,19,11,20,17.70
2008,07,19,11,21,17.70
2008,07,19,11,22,17.80
2008,07,19,11,23,17.80
2008,07,19,11,24,18.00
2008,07,19,11,25,18.20
2008,07,19,11,26,18.30
2008,07,19,11,27,18.40
2008,07,19,11,28,18.40
2008,07,19,11,29,18.50
2008,07,19,11,30,18.50
2008,07,19,11,31,18.40
2008,07,19,11,32,18.30
2008,07,19,11,33,18.30
2008,07,19,11,34,18.30
2008,07,19,11,35,18.20
2008,07,19,11,36,18.10
2008,07,19,11,37,18.00
2008,07,19,11,38,17.90
2008,07,19,11,39,17.90
2008,07,19,11,40,17.80
2008,07,19,11,41,17.70
2008,07,19,11,42,17.60
2008,07,19,11,43,17.60
2008,07,19,11,44,17.70
2008,07,19,11,45,17.70
2008,07,19,11,46,17.60
2008,07,19,11,47,17.70
2008,07,19,11,48,17.70
2008,07,19,11,49,17.70
2008,07,19,11,50,17.80
2008,07,19,11,51,17.90
2008,07,19,11,52,17.90
2008,07,19,11,53,17.90
2008,07,19,11,54,18.10
2008,07,19,11,55,18.20
2008,07,19,11,56,18.10
2008,07,19,11,57,18.10
2008,07,19,11,58,18.20
2008,07,19,11,59,18.10
2008,07,19,12,00,18.10
2008,07,19,12,01,18.20
2008,07,19,12,02,18.20
2008,07,19,12,03,18.10
2008,07,19,12,04,18.00
2008,07,19,12,05,17.80
2008,07,19,12,06,17.70
2008,07,19,12,07,17.80
2008,07,19,12,08,17.80
2008,07,19,12,09,17.80
2008,07,19,12,10,17.90
2008,07,19,12,11,17.90
2008,07,19,12,12,17.90
2008,07,19,12,13,17.90
2008,07,19,12,14,18.00
2008,07,19,12,15,18.10
2008,07,19,12,16,18.10
2008,07,19,12,17,18.00
2008,07,19,12,18,18.00
2008,07,19,12,19,18.10
2008,07,19,12,20,18.20
2008,07,19,12,21,18.30
2008,07,19,12,22,18.50
2008,07,19,12,23,18.60
2008,07,19,12,24,18.50
2008,07,19,12,25,18.40
2008,07,19,12,26,18.20
2008,07,19,12,27,17.90
2008,07,19,12,28,17.90
2008,07,19,12,29,17.90
2008,07,19,12,30,17.80
2008,07,19,12,31,17.80
2008,07,19,12,32,17.80
2008,07,19,12,33,17.80
2008,07,19,12,34,17.80
2008,07,19,12,35,17.80
2008,07,19,12,36,17.80
2008,07,19,12,37,17.90
2008,07,19,12,38,17.90
2008,07,19,12,39,17.70
2008,07,19,12,40,17.60
2008,07,19,12,41,17.70
2008,07,19,12,42,17.70
2008,07,19,12,43,17.70
2008,07,19,12,44,17.80
2008,07,19,12,45,17.90
2008,07,19,12,46,18.20
2008,07,19,12,47,18.40
2008,07,19,12,48,18.50
2008,07,19,12,49,18.70
2008,07,19,12,50,18.80
2008,07,19,12,51,18.80
2008,07,19,12,52,18.80
2008,07,19,12,53,18.70
2008,07,19,12,54,18.60
2008,07,19,12,55,18.70
2008,07,19,12,56,18.60
2008,07,19,12,57,18.70
2008,07,19,12,58,18.70
2008,07,19,12,59,18.60
2008,07,19,13,00,18.60
2008,07,19,13,01,18.50
2008,07,19,13,02,18.60
2008,07,19,13,03,18.90
2008,07,19,13,04,18.90
2008,07,19,13,05,19.00
2008,07,19,13,06,19.00
2008,07,19,13,07,18.70
2008,07,19,13,08,18.50
2008,07,19,13,09,18.50
2008,07,19,13,10,18.50
2008,07,19,13,11,18.50
2008,07,19,13,12,18.50
2008,07,19,13,13,18.50
2008,07,19,13,14,18.70
2008,07,19,13,15,18.70
2008,07,19,13,16,18.60
2008,07,19,13,17,18.60
2008,07,19,13,18,18.60
2008,07,19,13,19,18.70
2008,07,19,13,20,18.70
2008,07,19,13,21,18.60
2008,07,19,13,22,18.50
2008,07,19,13,23,18.50
2008,07,19,13,24,18.60
2008,07,19,13,25,18.50
2008,07,19,13,26,18.50
2008,07,19,13,27,18.50
2008,07,19,13,28,18.50
2008,07,19,13,29,18.60
2008,07,19,13,30,18.70
2008,07,19,13,31,18.70
2008,07,19,13,32,18.90
2008,07,19,13,33,18.90
2008,07,19,13,34,18.80
2008,07,19,13,35,18.60
2008,07,19,13,36,18.40
2008,07,19,13,37,18.50
2008,07,19,13,38,18.70
2008,07,19,13,39,18.80
2008,07,19,13,40,18.80
2008,07,19,13,41,18.80
2008,07,19,13,42,18.70
2008,07,19,13,43,18.60
2008,07,19,13,44,18.50
2008,07,19,13,45,18.50
2008,07,19,13,46,18.40
2008,07,19,13,47,18.30
2008,07,19,13,48,18.30
2008,07,19,13,49,18.60
2008,07,19,13,50,18.70
2008,07,19,13,51,18.70
2008,07,19,13,52,18.70
2008,07,19,13,53,18.80
2008,07,19,13,54,18.70
2008,07,19,13,55,18.70
2008,07,19,13,56,18.70
2008,07,19,13,57,18.60
2008,07,19,13,58,18.40
2008,07,19,13,59,18.30
2008,07,19,14,00,18.40
2008,07,19,14,01,18.50
2008,07,19,14,02,18.70
2008,07,19,14,03,18.80
2008,07,19,14,04,18.90
2008,07,19,14,05,18.90
2008,07,19,14,06,19.10
2008,07,19,14,07,18.90
2008,07,19,14,08,18.90
2008,07,19,14,09,19.00
2008,07,19,14,10,19.10
2008,07,19,14,11,19.00
2008,07,19,14,12,19.00
2008,07,19,14,13,18.90
2008,07,19,14,14,18.90
2008,07,19,14,15,18.80
2008,07,19,14,16,18.80
2008,07,19,14,17,18.70
2008,07,19,14,18,18.80
2008,07,19,14,19,19.00
2008,07,19,14,20,19.20
2008,07,19,14,21,19.30
2008,07,19,14,22,19.10
2008,07,19,14,23,19.10
2008,07,19,14,24,19.10
2008,07,19,14,25,19.10
2008,07,19,14,26,19.10
2008,07,19,14,27,19.10
2008,07,19,14,28,19.00
2008,07,19,14,29,18.80
2008,07,19,14,30,18.70
2008,07,19,14,31,18.60
2008,07,19,14,32,18.60
2008,07,19,14,33,18.90
2008,07,19,14,34,19.10
2008,07,19,14,35,19.30
2008,07,19,14,36,19.50
2008,07,19,14,37,19.70
2008,07,19,14,38,19.70
2008,07,19,14,39,19.50
2008,07,19,14,40,19.40
2008,07,19,14,41,19.40
2008,07,19,14,42,19.50
2008,07,19,14,43,19.60
2008,07,19,14,44,19.70
2008,07,19,14,45,19.80
2008,07,19,14,46,19.80
2008,07,19,14,47,19.90
2008,07,19,14,48,19.90
2008,07,19,14,49,20.00
2008,07,19,14,50,20.20
2008,07,19,14,51,20.20
2008,07,19,14,52,20.20
2008,07,19,14,53,20.20
2008,07,19,14,54,20.20
2008,07,19,14,55,20.20
2008,07,19,14,56,20.30
2008,07,19,14,57,20.40
2008,07,19,14,58,20.20
2008,07,19,14,59,20.20
2008,07,19,15,00,20.00
2008,07,19,15,01,19.80
2008,07,19,15,02,19.60
2008,07,19,15,03,19.60
2008,07,19,15,04,19.80
2008,07,19,15,05,20.00
2008,07,19,15,06,20.20
2008,07,19,15,07,20.30
2008,07,19,15,08,20.30
2008,07,19,15,09,20.20
2008,07,19,15,10,20.20
2008,07,19,15,11,20.20
2008,07,19,15,12,20.20
2008,07,19,15,13,20.20
2008,07,19,15,14,20.20
2008,07,19,15,15,20.20
2008,07,19,15,16,20.20
2008,07,19,15,17,20.20
2008,07,19,15,18,20.20
2008,07,19,15,19,20.30
2008,07,19,15,20,20.50
2008,07,19,15,21,20.50
2008,07,19,15,22,20.40
2008,07,19,15,23,20.40
2008,07,19,15,24,20.50
2008,07,19,15,25,20.60
2008,07,19,15,26,20.60
2008,07,19,15,27,20.70
2008,07,19,15,28,20.80
2008,07,19,15,29,20.80
2008,07,19,15,30,20.70
2008,07,19,15,31,20.70
2008,07,19,15,32,20.70
2008,07,19,15,33,20.80
2008,07,19,15,34,20.80
2008,07,19,15,35,21.00
2008,07,19,15,36,21.10
2008,07,19,15,37,21.00
2008,07,19,15,38,20.90
2008,07,19,15,39,20.90
2008,07,19,15,40,21.10
2008,07,19,15,41,21.30
2008,07,19,15,42,21.40
2008,07,19,15,43,21.30
2008,07,19,15,44,21.30
2008,07,19,15,45,21.30
2008,07,19,15,46,21.30
2008,07,19,15,47,21.20
2008,07,19,15,48,21.00
2008,07,19,15,49,20.90
2008,07,19,15,50,20.90
2008,07,19,15,51,21.00
2008,07,19,15,52,21.10
2008,07,19,15,53,21.20
2008,07,19,15,54,21.20
2008,07,19,15,55,21.20
2008,07,19,15,56,21.20
2008,07,19,15,57,21.20
2008,07,19,15,58,21.30
2008,07,19,15,59,21.20
2008,07,19,16,00,21.10
2008,07,19,16,01,21.10
2008,07,19,16,02,21.30
2008,07,19,16,03,21.30
2008,07,19,16,04,21.40
2008,07,19,16,05,21.60
2008,07,19,16,06,21.60
2008,07,19,16,07,21.90
2008,07,19,16,08,22.00
2008,07,19,16,09,22.20
2008,07,19,16,10,22.30
2008,07,19,16,11,22.20
2008,07,19,16,12,22.00
2008,07,19,16,13,21.90
2008,07,19,16,14,21.90
2008,07,19,16,15,22.00
2008,07,19,16,16,22.00
2008,07,19,16,17,22.00
2008,07,19,16,18,22.00
2008,07,19,16,19,21.90
2008,07,19,16,20,21.90
2008,07,19,16,21,21.80
2008,07,19,16,22,21.80
2008,07,19,16,23,21.80
2008,07,19,16,24,21.80
2008,07,19,16,25,21.80
2008,07,19,16,26,21.70
2008,07,19,16,27,21.70
2008,07,19,16,28,21.70
2008,07,19,16,29,21.60
2008,07,19,16,30,21.70
2008,07,19,16,31,21.90
2008,07,19,16,32,21.90
2008,07,19,16,33,21.70
2008,07,19,16,34,21.70
2008,07,19,16,35,21.70
2008,07,19,16,36,21.80
2008,07,19,16,37,21.90
2008,07,19,16,38,21.90
2008,07,19,16,39,21.80
2008,07,19,16,40,21.60
2008,07,19,16,41,21.60
2008,07,19,16,42,21.60
2008,07,19,16,43,21.60
2008,07,19,16,44,21.60
2008,07,19,16,45,21.60
2008,07,19,16,46,21.60
2008,07,19,16,47,21.40
2008,07,19,16,48,21.40
2008,07,19,16,49,21.20
2008,07,19,16,50,20.90
2008,07,19,16,51,20.70
2008,07,19,16,52,20.70
2008,07,19,16,53,20.90
2008,07,19,16,54,21.00
2008,07,19,16,55,21.00
2008,07,19,16,56,21.00
2008,07,19,16,57,21.20
2008,07,19,16,58,21.40
2008,07,19,16,59,21.60
2008,07,19,17,00,21.60
2008,07,19,17,01,21.70
2008,07,19,17,02,21.80
2008,07,19,17,03,21.90
2008,07,19,17,04,22.00
2008,07,19,17,05,22.00
2008,07,19,17,06,22.10
2008,07,19,17,07,22.10
2008,07,19,17,08,22.20
2008,07,19,17,09,22.30
2008,07,19,17,10,22.20
2008,07,19,17,11,22.20
2008,07,19,17,12,22.10
2008,07,19,17,13,21.80
2008,07,19,17,14,21.50
2008,07,19,17,15,21.30
2008,07,19,17,16,21.20
2008,07,19,17,17,21.10
2008,07,19,17,18,21.10
2008,07,19,17,19,21.00
2008,07,19,17,20,20.90
2008,07,19,17,21,21.00
2008,07,19,17,22,21.00
2008,07,19,17,23,21.00
2008,07,19,17,24,21.10
2008,07,19,17,25,21.30
2008,07,19,17,26,21.30
2008,07,19,17,27,21.50
2008,07,19,17,28,21.60
2008,07,19,17,29,21.60
2008,07,19,17,30,21.60
2008,07,19,17,31,21.70